Change the Weather History Date:

Saturday, November 3, 2012

  Actual Average Record
Temperature  
Mean Temperature 48 °F -  
Max Temperature 56 °F 42 °F 57 °F (2004)
Min Temperature 39 °F 31 °F 24 °F (2006)
Degree Days  
Heating Degree Days 18    
Moisture  
Dew Point 40 °F    
Average Humidity 72    
Maximum Humidity 81    
Minimum Humidity 54    
Precipitation  
Precipitation 0.00 in 0.04 in - ()
Sea Level Pressure  
Sea Level Pressure 29.67 in    
Wind  
Wind Speed 12 mph ()    
Max Wind Speed 22 mph    
Max Gust Speed -    
Visibility 6.2 miles    
Events Rain    
Averages and records for this station are not official NWS values.
T = Trace of Precipitation, MM = Missing Value Source: Averaged Metar Reports

Daily Weather History Graph

Daily Weather History Graph

Search for Another Location

Airport or City:

Trip Planner

Search our weather history database for the weather conditions in past years. The results will help you decide how hot, cold, wet, or windy it might be!

Date:

Astronomy

Nov. 03, 2012 Rise Set
Actual Time 6:56 AM CET 4:35 PM CET
Civil Twilight 6:22 AM CET 5:09 PM CET
Nautical Twilight 5:43 AM CET 5:48 PM CET
Astronomical Twilight 5:06 AM CET 6:25 PM CET
Moon 7:50 PM CET (11/3) 11:00 AM CET (11/3)
Length of Visible Light 10h 47m
Length of Day
9h 39m
Waning Gibbous, 82% of the Moon is Illuminated
Nov 3
Waning Gibbous
Nov 7
Last Quarter
Nov 13
New
Nov 20
First Quarter
Nov 28
Full

Hourly Weather History & Observations

Time (CET) Temp. Windchill Dew Point Humidity Pressure Visibility Wind Dir Wind Speed Gust Speed Precip Events Conditions
12:00 AM 44.6 °F 38.8 °F 37.4 °F 76% 29.62 in 6.2 mi South 11.5 mph - N/A   Scattered Clouds
12:30 AM 44.6 °F 38.8 °F 37.4 °F 76% 29.62 in 6.2 mi South 11.5 mph - N/A   Mostly Cloudy
1:00 AM 44 °F - 36 °F 66% 29.66 in 31 mi SSW 13.4 mph - - Rain Light Rain
1:00 AM 44.6 °F 39.2 °F 35.6 °F 71% 29.62 in 6.2 mi South 10.4 mph - N/A   Scattered Clouds
1:30 AM 42.8 °F 36.6 °F 35.6 °F 76% 29.62 in - South 11.5 mph - N/A   Clear
2:00 AM 42.8 °F 37.0 °F 37.4 °F 81% 29.62 in - South 10.4 mph - N/A   Clear
2:30 AM 46.4 °F 40.4 °F 39.2 °F 76% 29.65 in - SSW 13.8 mph - N/A   Clear
3:00 AM 46.4 °F 39.0 °F 39.2 °F 76% 29.65 in - SSW 19.6 mph - N/A   Clear
3:30 AM 46.4 °F 39.5 °F 41.0 °F 81% 29.65 in - SSW 17.3 mph - N/A   Clear
4:00 AM 46.4 °F 38.7 °F 41.0 °F 81% 29.65 in - SW 20.7 mph - N/A   Clear
4:24 AM 46.4 °F 39.2 °F 39.2 °F 76% 29.68 in 6.2 mi SW 18.4 mph - N/A Rain Light Rain
4:30 AM 46.4 °F 39.2 °F 39.2 °F 76% 29.65 in 6.2 mi SW 18.4 mph - N/A Rain Light Rain
4:35 AM 46.4 °F 39.5 °F 39.2 °F 76% 29.68 in - SSW 17.3 mph - N/A   Clear
5:00 AM 46.4 °F 39.0 °F 39.2 °F 76% 29.68 in - SW 19.6 mph - N/A   Clear
5:30 AM 46.4 °F 38.7 °F 37.4 °F 71% 29.68 in - SW 20.7 mph - N/A   Clear
6:00 AM 46.4 °F 38.5 °F 35.6 °F 66% 29.68 in - SW 21.9 mph - N/A   Clear
6:30 AM 46.4 °F 39.0 °F 37.4 °F 71% 29.68 in - SW 19.6 mph - N/A   Clear
7:00 AM 44 °F - 38 °F 71% 29.73 in 44 mi SW 17.9 mph - -   Partly Cloudy
7:00 AM 44.6 °F 36.9 °F 37.4 °F 76% 29.71 in - SSW 18.4 mph - N/A   Clear
7:30 AM 44.6 °F 36.6 °F 37.4 °F 76% 29.71 in - SW 19.6 mph - N/A   Clear
8:00 AM 42.8 °F 35.1 °F 37.4 °F 81% 29.71 in - SSW 16.1 mph - N/A   Clear
8:30 AM 44.6 °F 38.8 °F 37.4 °F 76% 29.71 in - South 11.5 mph - N/A   Clear
9:00 AM 44.6 °F 39.2 °F 39.2 °F 81% 29.71 in - South 10.4 mph - N/A   Clear
9:30 AM 46.4 °F 40.1 °F 37.4 °F 71% 29.71 in - SSW 15.0 mph - N/A   Clear
10:00 AM 46.4 °F 39.5 °F 37.4 °F 71% 29.71 in 6.2 mi SSW 17.3 mph - N/A   Partly Cloudy
10:30 AM 46.4 °F 39.8 °F 39.2 °F 76% 29.74 in 6.2 mi SSW 16.1 mph - N/A   Partly Cloudy
11:00 AM 46.4 °F 40.7 °F 39.2 °F 76% 29.74 in 6.2 mi SSW 12.7 mph - N/A   Partly Cloudy
11:30 AM 46.4 °F 40.7 °F 39.2 °F 76% 29.74 in 6.2 mi SSW 12.7 mph - N/A   Mostly Cloudy
12:00 PM 46.4 °F 40.1 °F 41.0 °F 81% 29.71 in 6.2 mi SSW 15.0 mph - N/A   Mostly Cloudy
12:30 PM 48.2 °F - 41.0 °F 76% 29.71 in 6.2 mi SSW 15.0 mph - N/A   Mostly Cloudy
1:00 PM 49 °F - 41 °F 66% 29.72 in 47 mi SSW 11.2 mph - -   Partly Cloudy
1:00 PM 48.2 °F - 41.0 °F 76% 29.68 in 6.2 mi South 9.2 mph - N/A   Mostly Cloudy
1:30 PM 50.0 °F - 42.8 °F 76% 29.68 in 6.2 mi South 12.7 mph - N/A   Scattered Clouds
2:00 PM 53.6 °F - 42.8 °F 67% 29.65 in 6.2 mi South 13.8 mph - N/A   Partly Cloudy
2:30 PM 57.2 °F - 44.6 °F 63% 29.65 in 6.2 mi South 10.4 mph - N/A   Partly Cloudy
3:00 PM 55.4 °F - 44.6 °F 67% 29.65 in 6.2 mi South 11.5 mph - N/A   Partly Cloudy
3:30 PM 55.4 °F - 44.6 °F 67% 29.65 in 6.2 mi South 11.5 mph - N/A   Scattered Clouds
4:00 PM 55.4 °F - 44.6 °F 67% 29.65 in 6.2 mi South 9.2 mph - N/A   Scattered Clouds
4:30 PM 53.6 °F - 44.6 °F 72% 29.65 in 6.2 mi South 9.2 mph - N/A   Scattered Clouds
5:00 PM 53.6 °F - 42.8 °F 67% 29.65 in 6.2 mi South 9.2 mph - N/A   Partly Cloudy
5:30 PM 51.8 °F - 42.8 °F 71% 29.62 in 6.2 mi South 10.4 mph - N/A   Partly Cloudy
6:00 PM 51.8 °F - 42.8 °F 71% 29.65 in - South 10.4 mph - N/A   Clear
6:30 PM 51.8 °F - 41.0 °F 67% 29.62 in - South 10.4 mph - N/A   Clear
7:00 PM 53 °F - 41 °F 54% 29.65 in 31 mi South 8.9 mph - -   Partly Cloudy
7:00 PM 53.6 °F - 41.0 °F 62% 29.65 in - South 12.7 mph - N/A   Clear
7:30 PM 53.6 °F - 41.0 °F 62% 29.65 in - South 12.7 mph - N/A   Clear
8:00 PM 55.4 °F - 39.2 °F 54% 29.65 in - South 11.5 mph - N/A   Clear
8:30 PM 53.6 °F - 39.2 °F 58% 29.65 in - South 10.4 mph - N/A   Clear
9:00 PM 53.6 °F - 39.2 °F 58% 29.65 in - South 11.5 mph - N/A   Clear
9:30 PM 51.8 °F - 41.0 °F 67% 29.65 in - Variable 5.8 mph - N/A   Clear
10:00 PM 48.2 °F - 39.2 °F 71% 29.68 in - North 5.8 mph - N/A   Clear
10:30 PM 46.4 °F 45.2 °F 41.0 °F 81% 29.68 in - West 3.5 mph - N/A   Clear
11:00 PM 46.4 °F 43.5 °F 41.0 °F 81% 29.68 in - ESE 5.8 mph - N/A   Clear
11:06 PM 46.4 °F 44.3 °F 41.0 °F 81% 29.71 in - SE 4.6 mph - N/A   Clear
11:30 PM 46.4 °F - 41.0 °F 81% 29.68 in - Variable 1.2 mph - N/A   Clear